Mineralnyye Vody Airport

Jump to: basic info | weather | frequencies | runways | comments

Related pages: nearby airports | nearby navaids | notams | map

Basic information (top)

Codes: MRV URMM
Location: lon 44.225101, lat 43.081902, elev 1,054 ft / 321 m msl
Status: medium_airport
Scheduled airline service: yes
Links: Wikipedia Mobile

Weather (top)

Current conditions (rec'd 2014/10/01 05:30Z):

URMM 010530Z 29003MPS 9999 BKN043 13/10 Q1019 R30/CLRD70 NOSIG RMK QFE736/0982

Airport forecast (rec'd 2014/10/01 03:24Z):

TAF URMM 010153Z 0103/0203 26003G08MPS 3000 BR BKN007 
      TEMPO 0103/0106 1200 OVC004 
     FM010600 29003G08MPS 9999 SCT020CB 
      TEMPO 0112/0203 3000 -SHRA BKN006 BKN020CB

Frequencies (top)

Verify before use: may be inaccurate or out of date.

APP: 119.3 MHz (APP)
ATIS: 127.4 MHz (ATIS)
GND: 121.9 MHz (TAXIING)
RDR: 120.7 MHz (KRUG)
TWR: 128 MHz (START)

Runways (top)

12/30: 12,795 x 197 ft (3,900 x 60 m) — paved — lighted

Latest comments (top)

No comments yet for Mineralnyye Vody Airport

More... (top)

See also NOTAMs and nearby airports and navaids, or visit the Mineralnyye Vody Airport page at the main OurAirports website..